• In Deutschland
  • Länderverzeichnis
  • Für 7 Tage
  • Wassertemperatur
  • Satellitenkarten
  • Wetterkarte
  • Widgets
  • user-avatar
    Anmelden

    Stündliche Wetter Tbilissi

    Heute, 16 August, Donnerstag

    Zeit Temperatur Niederschläge Wind Luftdruck Luftfeuchtigkeit
    00:00 +18°C° 0 mm 2 m/S 702 mmHg 66%
    01:00 +18°C° 0 mm 2 m/S 702 mmHg 66%
    02:00 +18°C° 0 mm 2 m/S 702 mmHg 66%
    03:00 +18°C° 0 mm 2 m/S 702 mmHg 68%
    04:00 +19°C° 0 mm 1 m/S 702 mmHg 67%
    05:00 +19°C° 0 mm 1 m/S 702 mmHg 67%
    06:00 +19°C° 0 mm 1 m/S 702 mmHg 67%
    07:00 +20°C° 0 mm 2 m/S 702 mmHg 62%
    08:00 +23°C° 0 mm 2 m/S 702 mmHg 57%
    09:00 +25°C° 0 mm 2 m/S 702 mmHg 51%
    10:00 +27°C° 0 mm 2 m/S 702 mmHg 48%
    11:00 +28°C° 0 mm 3 m/S 702 mmHg 45%
    12:00 +29°C° 0 mm 3 m/S 702 mmHg 42%
    13:00 +30°C° 0 mm 3 m/S 701 mmHg 41%
    14:00 +30°C° 0 mm 3 m/S 701 mmHg 40%
    15:00 +30°C° 0 mm 3 m/S 701 mmHg 40%
    16:00 +29°C° 0 mm 3 m/S 701 mmHg 43%
    17:00 +29°C° 0 mm 3 m/S 701 mmHg 46%
    18:00 +28°C° 0 mm 2 m/S 701 mmHg 49%
    19:00 +26°C° 0,1 mm 2 m/S 701 mmHg 55%
    20:00 +24°C° 0,1 mm 2 m/S 701 mmHg 61%
    21:00 +22°C° 0,1 mm 1 m/S 701 mmHg 67%
    22:00 +22°C° 0,4 mm 1 m/S 701 mmHg 68%
    23:00 +21°C° 0,4 mm 1 m/S 701 mmHg 69%

    Morgen, 17 August, Freitag

    Zeit Temperatur Niederschläge Wind Luftdruck Luftfeuchtigkeit
    00:00 +20°C° 0,4 mm 2 m/S 701 mmHg 70%
    01:00 +19°C° 0,2 mm 2 m/S 701 mmHg 71%
    02:00 +20°C° 0,2 mm 1 m/S 701 mmHg 71%
    03:00 +20°C° 0,2 mm 1 m/S 700 mmHg 72%
    04:00 +20°C° 0 mm 1 m/S 700 mmHg 72%
    05:00 +20°C° 0 mm 1 m/S 700 mmHg 71%
    06:00 +20°C° 0 mm 1 m/S 701 mmHg 71%
    07:00 +22°C° 0 mm 1 m/S 701 mmHg 63%
    08:00 +25°C° 0 mm 1 m/S 701 mmHg 55%
    09:00 +27°C° 0 mm 1 m/S 701 mmHg 47%
    10:00 +29°C° 0 mm 2 m/S 700 mmHg 43%
    11:00 +30°C° 0 mm 2 m/S 700 mmHg 40%
    12:00 +32°C° 0 mm 2 m/S 700 mmHg 36%
    13:00 +32°C° 0 mm 2 m/S 700 mmHg 35%
    14:00 +34°C° 0 mm 2 m/S 699 mmHg 33%
    15:00 +35°C° 0 mm 3 m/S 699 mmHg 31%
    16:00 +34°C° 0,1 mm 2 m/S 699 mmHg 34%
    17:00 +32°C° 0,1 mm 2 m/S 699 mmHg 36%
    18:00 +31°C° 0,1 mm 2 m/S 699 mmHg 38%
    19:00 +29°C° 0 mm 2 m/S 699 mmHg 44%
    20:00 +27°C° 0 mm 1 m/S 699 mmHg 49%
    21:00 +24°C° 0 mm 1 m/S 699 mmHg 55%
    22:00 +24°C° 0 mm 1 m/S 699 mmHg 57%
    23:00 +23°C° 0 mm 1 m/S 699 mmHg 60%

    übermorgen, 18 August, Samstag

    Zeit Temperatur Niederschläge Wind Luftdruck Luftfeuchtigkeit
    00:00 +21°C° 0 mm 2 m/S 699 mmHg 62%
    01:00 +21°C° 0,1 mm 2 m/S 699 mmHg 64%
    02:00 +21°C° 0,1 mm 1 m/S 699 mmHg 66%
    03:00 +21°C° 0,1 mm 1 m/S 699 mmHg 68%
    04:00 +21°C° 0 mm 1 m/S 698 mmHg 67%
    05:00 +21°C° 0 mm 1 m/S 698 mmHg 67%
    06:00 +21°C° 0 mm 1 m/S 698 mmHg 66%
    07:00 +23°C° 0 mm 1 m/S 699 mmHg 58%
    08:00 +26°C° 0 mm 1 m/S 699 mmHg 51%
    09:00 +28°C° 0 mm 1 m/S 699 mmHg 43%
    10:00 +30°C° 0 mm 2 m/S 699 mmHg 39%
    11:00 +31°C° 0 mm 2 m/S 699 mmHg 35%
    12:00 +33°C° 0 mm 3 m/S 698 mmHg 32%
    13:00 +34°C° 0 mm 3 m/S 698 mmHg 30%
    14:00 +34°C° 0 mm 3 m/S 698 mmHg 29%
    15:00 +35°C° 0 mm 3 m/S 698 mmHg 28%
    16:00 +34°C° 0 mm 3 m/S 698 mmHg 31%
    17:00 +33°C° 0 mm 3 m/S 698 mmHg 33%
    18:00 +31°C° 0 mm 2 m/S 698 mmHg 36%
    19:00 +29°C° 0,1 mm 2 m/S 698 mmHg 42%
    20:00 +27°C° 0,1 mm 2 m/S 698 mmHg 47%
    21:00 +24°C° 0,1 mm 1 m/S 699 mmHg 53%
    22:00 +24°C° 0,1 mm 2 m/S 699 mmHg 56%
    23:00 +23°C° 0,1 mm 2 m/S 699 mmHg 59%

    19 August, Sonntag

    Zeit Temperatur Niederschläge Wind Luftdruck Luftfeuchtigkeit
    00:00 +21°C° 0,1 mm 2 m/S 698 mmHg 62%
    01:00 +21°C° 0,4 mm 2 m/S 698 mmHg 64%
    02:00 +20°C° 0,4 mm 2 m/S 698 mmHg 66%
    03:00 +21°C° 0,4 mm 1 m/S 698 mmHg 68%
    04:00 +21°C° 0,4 mm 1 m/S 698 mmHg 68%
    05:00 +21°C° 0,4 mm 1 m/S 698 mmHg 69%
    06:00 +21°C° 0,4 mm 1 m/S 698 mmHg 70%
    07:00 +22°C° 0,7 mm 1 m/S 698 mmHg 66%
    08:00 +24°C° 0,7 mm 1 m/S 699 mmHg 62%
    09:00 +25°C° 0,7 mm 2 m/S 699 mmHg 58%
    10:00 +26°C° 0,3 mm 2 m/S 699 mmHg 55%
    11:00 +27°C° 0,3 mm 2 m/S 699 mmHg 52%
    12:00 +28°C° 0,3 mm 3 m/S 698 mmHg 48%
    13:00 +29°C° 0 mm 3 m/S 698 mmHg 45%
    14:00 +29°C° 0 mm 3 m/S 698 mmHg 43%
    15:00 +30°C° 0 mm 3 m/S 698 mmHg 40%
    16:00 +29°C° 0 mm 3 m/S 698 mmHg 43%
    17:00 +28°C° 0 mm 3 m/S 698 mmHg 46%
    18:00 +28°C° 0 mm 2 m/S 698 mmHg 49%
    19:00 +26°C° 0,4 mm 2 m/S 699 mmHg 55%
    20:00 +24°C° 0,4 mm 2 m/S 699 mmHg 61%
    21:00 +23°C° 0,4 mm 2 m/S 699 mmHg 67%
    22:00 +21°C° 0,4 mm 2 m/S 699 mmHg 69%
    23:00 +20°C° 0,4 mm 2 m/S 699 mmHg 71%

    20 August, Montag

    Zeit Temperatur Niederschläge Wind Luftdruck Luftfeuchtigkeit
    00:00 +20°C° 0,4 mm 2 m/S 700 mmHg 73%
    01:00 +19°C° 0,3 mm 2 m/S 700 mmHg 74%
    02:00 +19°C° 0,3 mm 2 m/S 700 mmHg 75%
    03:00 +18°C° 0,3 mm 2 m/S 699 mmHg 75%
    04:00 +18°C° 0,1 mm 2 m/S 700 mmHg 75%
    05:00 +19°C° 0,1 mm 1 m/S 700 mmHg 75%
    06:00 +19°C° 0,1 mm 1 m/S 700 mmHg 75%
    07:00 +19°C° 0,2 mm 2 m/S 700 mmHg 70%
    08:00 +20°C° 0,2 mm 2 m/S 700 mmHg 65%
    09:00 +22°C° 0,2 mm 3 m/S 700 mmHg 60%
    10:00 +24°C° 0 mm 3 m/S 700 mmHg 57%
    11:00 +25°C° 0 mm 3 m/S 700 mmHg 53%
    12:00 +26°C° 0 mm 3 m/S 700 mmHg 49%
    13:00 +26°C° 0 mm 3 m/S 700 mmHg 48%
    14:00 +27°C° 0 mm 3 m/S 700 mmHg 46%
    15:00 +28°C° 0 mm 3 m/S 700 mmHg 44%
    16:00 +27°C° 0 mm 3 m/S 700 mmHg 46%
    17:00 +27°C° 0 mm 2 m/S 700 mmHg 48%
    18:00 +26°C° 0 mm 2 m/S 701 mmHg 50%
    19:00 +24°C° 0,1 mm 2 m/S 701 mmHg 55%
    20:00 +23°C° 0,1 mm 2 m/S 701 mmHg 61%
    21:00 +21°C° 0,1 mm 1 m/S 702 mmHg 66%
    22:00 +21°C° 0,2 mm 1 m/S 702 mmHg 67%
    23:00 +19°C° 0,2 mm 2 m/S 702 mmHg 68%

    21 August, Dienstag

    Zeit Temperatur Niederschläge Wind Luftdruck Luftfeuchtigkeit
    00:00 +19°C° 0,2 mm 2 m/S 702 mmHg 69%
    01:00 +18°C° 0,2 mm 2 m/S 702 mmHg 71%
    02:00 +18°C° 0,2 mm 1 m/S 702 mmHg 73%
    03:00 +18°C° 0,2 mm 1 m/S 702 mmHg 75%
    04:00 +18°C° 0,1 mm 1 m/S 702 mmHg 74%
    05:00 +18°C° 0,1 mm 1 m/S 702 mmHg 74%
    06:00 +18°C° 0,1 mm 1 m/S 702 mmHg 73%
    07:00 +20°C° 0 mm 1 m/S 702 mmHg 66%
    08:00 +22°C° 0 mm 1 m/S 702 mmHg 58%
    09:00 +24°C° 0 mm 1 m/S 702 mmHg 51%
    10:00 +25°C° 0 mm 2 m/S 702 mmHg 46%
    11:00 +27°C° 0 mm 2 m/S 702 mmHg 42%
    12:00 +28°C° 0 mm 3 m/S 702 mmHg 38%
    13:00 +29°C° 0 mm 3 m/S 702 mmHg 36%
    14:00 +29°C° 0 mm 3 m/S 702 mmHg 35%
    15:00 +30°C° 0 mm 3 m/S 702 mmHg 34%
    16:00 +29°C° 0 mm 3 m/S 702 mmHg 36%
    17:00 +28°C° 0 mm 3 m/S 702 mmHg 39%
    18:00 +27°C° 0 mm 3 m/S 702 mmHg 41%
    19:00 +25°C° 0 mm 2 m/S 703 mmHg 46%
    20:00 +23°C° 0 mm 2 m/S 703 mmHg 52%
    21:00 +21°C° 0 mm 1 m/S 703 mmHg 57%
    22:00 +20°C° 0 mm 1 m/S 703 mmHg 58%
    23:00 +19°C° 0 mm 2 m/S 703 mmHg 59%
    Mehr zeigen